EW3719 Weather Reports


time (UTC)temp
F
wind
direction
speed
knots
gust
knots
rain 1hr
in
rain 24hr
in
rain mn
in
humidity
%
barometer
mb
20260507000011 45 260 1.7 4.3 0.00 1.00 0.65 86 1009.9
20260506234510 46 251 3.5 7.0 0.00 1.00 0.65 86 1010.0
20260506233110 46 240 1.7 4.3 0.00 1.00 0.65 84 1009.9
20260506231508 46 255 1.7 3.5 0.00 1.00 0.65 81 1009.9
20260506230013 46 229 0.0 2.6 0.00 1.00 0.65 81 1009.8
20260506224509 46 240 1.7 3.5 0.00 1.00 0.65 77 1009.9
20260506223007 46 248 1.7 3.5 0.00 1.00 0.65 79 1009.8
20260506221506 46 258 0.9 3.5 0.00 1.00 0.65 80 1009.7
20260506220006 46 299 1.7 3.5 0.00 1.00 0.65 81 1009.6
20260506214505 46 250 1.7 3.5 0.00 1.00 0.65 82 1009.6
20260506213004 47 261 1.7 3.5 0.00 1.00 0.65 80 1009.6
20260506211504 47 248 0.9 2.6 0.00 1.00 0.65 75 1009.6
20260506210002 46 324 0.0 2.6 0.00 1.00 0.65 78 1009.4
20260506204502 46 287 0.9 2.6 0.00 1.00 0.65 80 1009.6
20260506203059 47 322 0.9 3.5 0.00 1.00 0.65 82 1009.6
20260506201600 46 273 0.0 3.5 0.00 1.00 0.65 84 1009.3
20260506200058 46 356 1.7 4.3 0.00 1.00 0.65 83 1009.3
20260506194556 46 58 1.7 4.3 0.00 1.00 0.65 83 1009.2
20260506193054 46 48 1.7 3.5 0.00 1.00 0.65 86 1009.4
20260506191552 45 338 0.9 2.6 0.00 1.00 0.65 87 1009.7
20260506190051 45 11 1.7 2.6 0.00 1.00 0.65 88 1009.7
20260506184548 44 37 1.7 6.1 0.00 1.00 0.65 88 1009.5
20260506183048 44 34 2.6 5.2 0.00 1.00 0.65 89 1009.7
20260506181547 45 50 1.7 6.1 0.00 1.00 0.65 90 1009.4
20260506180046 44 22 3.5 6.1 0.00 1.00 0.65 89 1009.3
20260506174555 44 42 2.6 6.1 0.00 1.00 0.65 90 1009.2
20260506173052 43 60 3.5 7.8 0.00 1.00 0.65 90 1009.1
20260506171544 44 53 4.3 7.0 0.00 1.00 0.65 89 1009.0
20260506170046 44 82 4.3 9.6 0.01 1.00 0.65 89 1009.0
20260506164541 44 44 4.3 7.8 0.01 1.00 0.65 90 1009.1
20260506163047 44 52 6.1 9.6 0.02 1.00 0.65 90 1009.3
20260506161539 44 49 6.1 8.7 0.02 1.00 0.65 91 1009.5
20260506160037 43 13 4.3 8.7 0.01 0.99 0.64 92 1009.7
20260506154539 43 34 3.5 7.0 0.01 0.99 0.64 92 1009.8
20260506153042 43 42 4.3 7.8 0.00 0.98 0.63 92 1009.8
20260506151536 43 32 3.5 7.0 0.00 0.98 0.63 93 1009.5
20260506150043 43 42 4.3 7.8 0.01 0.98 0.63 93 1009.4
20260506144553 43 25 4.3 7.8 0.02 0.98 0.63 94 1009.4
20260506143039 42 34 4.3 7.8 0.03 0.98 0.63 94 1009.4
20260506141533 42 39 4.3 6.1 0.05 0.98 0.63 94 1009.6
20260506140045 42 61 2.6 7.8 0.05 0.97 0.62 94 1009.6
20260506134533 42 44 3.5 8.7 0.05 0.96 0.61 95 1009.4
20260506133029 42 46 2.6 5.2 0.05 0.95 0.60 95 1009.5
20260506131535 42 34 1.7 5.2 0.04 0.93 0.57 95 1009.4
20260506130026 43 39 0.9 6.1 0.05 0.92 0.56 95 1009.4
20260506124523 42 41 3.5 7.0 0.05 0.91 0.56 95 1009.4
20260506123035 42 70 3.5 6.1 0.05 0.90 0.55 95 1009.4
20260506121522 42 66 0.0 3.5 0.05 0.89 0.54 96 1009.4
20260506120029 42 34 1.7 4.3 0.04 0.87 0.52 95 1009.7
20260506114521 42 53 0.9 3.5 0.05 0.86 0.51 96 1009.4
20260506113019 42 330 0.0 0.9 0.06 0.85 0.50 96 1009.8
20260506111518 42 339 0.0 1.7 0.06 0.84 0.49 96 1009.9
20260506110018 42 330 0.0 0.9 0.08 0.83 0.48 96 1009.8
20260506104523 42 27 0.0 0.9 0.08 0.81 0.46 96 1009.8
20260506103019 42 27 0.0 0.0 0.08 0.79 0.44 96 1009.9
20260506101516 42 27 0.0 0.9 0.09 0.78 0.43 95 1009.7
20260506100019 42 27 0.0 0.0 0.08 0.78 0.40 95 1009.7
20260506094513 43 27 0.0 0.9 0.08 0.76 0.38 95 1009.6
20260506093013 42 27 0.0 0.0 0.08 0.74 0.36 95 1009.5
20260506091512 43 20 0.9 1.7 0.07 0.72 0.34 95 1009.2
20260506090010 43 356 0.0 1.7 0.05 0.70 0.32 94 1009.5
20260506084510 43 2 2.6 5.2 0.04 0.68 0.30 94 1009.5
20260506083009 43 205 0.0 2.6 0.02 0.66 0.28 93 1009.8
20260506081513 43 150 1.7 4.3 0.01 0.65 0.27 93 1009.8
20260506073005 43 184 2.6 5.2 0.07 0.64 0.26 94 1009.3
20260506071504 43 193 2.6 7.0 0.09 0.64 0.26 94 1009.3
20260506061557 43 129 0.9 3.5 0.13 0.64 0.17 94 1009.2
20260506044550 44 217 4.3 7.8 0.01 0.48 0.01 93 1010.0
20260506043042 44 208 3.5 9.6 0.03 0.48 0.01 94 1009.9
20260506041543 44 193 3.5 7.8 0.03 0.47 0.00 94 1009.8
20260506040037 44 198 4.3 7.8 0.04 0.47 0.47 94 1009.8
20260506034543 45 199 2.6 7.8 0.05 0.47 0.47 94 1009.7
20260506033032 45 163 2.6 7.0 0.04 0.45 0.45 94 1010.0
20260506031542 45 221 4.3 7.0 0.05 0.44 0.44 94 1010.3
20260506030031 45 192 4.3 7.8 0.06 0.43 0.43 93 1009.9
20260506024529 45 165 3.5 7.8 0.06 0.42 0.42 93 1009.6
20260506023024 45 218 2.6 9.6 0.06 0.41 0.41 93 1009.4
20260506021522 46 250 3.5 9.6 0.07 0.39 0.39 92 1009.4
20260506020020 46 193 3.5 7.0 0.08 0.37 0.37 92 1009.3
20260506014516 46 167 2.6 7.8 0.10 0.36 0.36 92 1008.9
20260506013017 46 136 2.6 5.2 0.12 0.35 0.35 91 1008.8
20260506011516 47 217 0.9 3.5 0.11 0.32 0.32 91 1008.9
20260506010029 47 259 1.7 6.1 0.10 0.28 0.28 90 1008.7
20260506004506 47 243 2.6 6.1 0.09 0.26 0.26 90 1008.6
20260506003002 48 160 2.6 7.0 0.08 0.23 0.23 89 1008.6
20260506001502 48 238 4.3 8.7 0.08 0.21 0.21 89 1008.3